This is the latest recevied weather packets stored in our database for station/object KE0TNI-13. If no packets are shown the sender has not sent any weather packets the latest 10 day(s).
| Time | Temp. | Humidity | Pressure | Rain* | Wind** | Luminosity | Snow |
|---|---|---|---|---|---|---|---|
| 1777891976 | 2.78° C | 52% | 1016.2 hPa | 0 mm | - | 0 W/m² | - |
| 1777891675 | 2.78° C | 52% | 1016.2 hPa | 0 mm | - | 0 W/m² | - |
| 1777891370 | 2.78° C | 52% | 1016.3 hPa | 0 mm | - | 0 W/m² | - |
| 1777891066 | 2.78° C | 53% | 1016.1 hPa | 0 mm | - | 0 W/m² | - |
| 1777890761 | 2.78° C | 51% | 1016.2 hPa | 0 mm | - | 0 W/m² | - |
| 1777890457 | 2.78° C | 49% | 1016.1 hPa | 0 mm | - | 0 W/m² | - |
| 1777890153 | 2.78° C | 52% | 1016.5 hPa | 0 mm | - | 0 W/m² | - |
| 1777889850 | 2.78° C | 51% | 1016.5 hPa | 0 mm | - | 0 W/m² | - |
| 1777889547 | 2.78° C | 51% | 1016.5 hPa | 0 mm | - | 0 W/m² | - |
| 1777889245 | 2.78° C | 50% | 1016.3 hPa | 0 mm | - | 0 W/m² | - |
| 1777888943 | 3.33° C | 51% | 1016.5 hPa | 0 mm | - | 0 W/m² | - |
| 1777888639 | 3.33° C | 52% | 1016.6 hPa | 0 mm | - | 0 W/m² | - |
| 1777888335 | 3.33° C | 50% | 1016.5 hPa | 0 mm | - | 0 W/m² | - |
| 1777888032 | 3.33° C | 49% | 1016.3 hPa | 0 mm | - | 0 W/m² | - |
| 1777887729 | 3.33° C | 53% | 1016.5 hPa | 0 mm | - | 0 W/m² | - |
| 1777887426 | 2.78° C | 54% | 1016.6 hPa | 0 mm | - | 0 W/m² | - |
| 1777887121 | 2.78° C | 53% | 1016.7 hPa | 0 mm | - | 0 W/m² | - |
| 1777886817 | 2.78° C | 50% | 1016.5 hPa | 0 mm | - | 0 W/m² | - |
| 1777886513 | 2.78° C | 51% | 1016.6 hPa | 0 mm | - | 0 W/m² | - |
| 1777886212 | 2.78° C | 53% | 1016.6 hPa | 0 mm | - | 0 W/m² | - |
| 1777885909 | 2.78° C | 53% | 1016.9 hPa | 0 mm | - | 0 W/m² | - |
| 1777885608 | 2.78° C | 53% | 1016.7 hPa | 0 mm | - | 0 W/m² | - |
| 1777885305 | 2.78° C | 52% | 1017 hPa | 0 mm | - | 0 W/m² | - |
| 1777885003 | 2.78° C | 53% | 1016.9 hPa | 0 mm | - | 0 W/m² | - |
| 1777884698 | 2.78° C | 55% | 1016.9 hPa | 0 mm | - | 0 W/m² | - |
* Rain latest hour (hover to see other rain measurements)
** Current wind speed in m/s (hover to see current wind gust speed)